Flag Weather past 2 weeks in Walvis Bay, Namibia

Now
55 °F

Low clouds.


Feels Like: 53 °F
Forecast: 58 / 69 °F
Wind: 9 mph from North

Location: Walvis Bay

Current Time: Oct 31, 2014 at 8:34:17 AM

Latest Report: Oct 31, 2014 at 8:00 AM


Visibility: N/A

Pressure: 29.95 "Hg

Humidity: 88%

Dew point: 52 °F

Location of Walvis BayLocation

Historic Weather in Walvis Bay — Graph

°F

Walvis Bay temperature yesterday

Maximum temperature yesterday: 82 °F (at 4:00 PM)
Minimum temperature yesterday: 52 °F (at 6:00 AM)
Average temperature yesterday: 64 °F

Past Weeks' High & Low Weather Summary

 TemperatureHumidityPressure
High82 °F (Oct 30, 4:00 PM)94% (Oct 21, 3:00 AM)32.01 "Hg (Oct 21, 3:00 AM)
Low50 °F (Oct 17, 1:00 AM)28% (Oct 30, 4:00 PM)29.83 "Hg (Oct 30, 4:00 PM)
Average59 °F74%30.00 "Hg
* Reported Oct 16 7:00 AM — Oct 31 7:00 AM, Walvis Bay, Weather by CustomWeather, © 2014

Note: Actual official high and low records may vary slightly from our data, if they occured in-between our weather recording intervals... More about our weather records

Advertising

Walvis Bay weather history for previous 24 hours

 ConditionsComfort  
Time TempWeatherWind HumidityBarometerVisibility
7:00 AM
Oct 31
54 °FLow clouds.8 mph94%29.92 "HgN/A
5:00 AM54 °FCool.8 mph88%29.89 "HgN/A
4:00 AM55 °FCool.6 mph82%29.89 "HgN/A
3:00 AM55 °FCool.3 mph82%29.89 "HgN/A
2:00 AM55 °FCool.7 mph82%29.92 "HgN/A
1:00 AM57 °FCool.5 mph77%29.92 "HgN/A
12:00 AM57 °FCool.5 mph77%29.92 "HgN/A
11:00 PM
Oct 30
59 °FCool.5 mph72%29.92 "HgN/A
10:00 PM61 °FCool.9 mph72%29.89 "HgN/A
9:00 PM63 °FMild.10 mph68%29.86 "HgN/A
8:00 PM64 °FMild.8 mph64%29.86 "HgN/A
7:00 PM70 °FMild.13 mph53%29.83 "HgN/A
6:00 PM77 °FWarm.18 mph42%29.83 "HgN/A
4:00 PM82 °FScattered clouds.21 mph28%29.83 "HgN/A
3:00 PM81 °FPassing clouds.21 mph34%29.86 "HgN/A
2:00 PM81 °FPassing clouds.13 mph37%29.89 "HgN/A
1:00 PM77 °FWarm.12 mph42%29.92 "HgN/A
12:00 PM75 °FMild.8 mph41%29.95 "HgN/A
11:00 AM68 °FSunny.6 mph56%29.98 "Hg10 mi
10:00 AM64 °FSunny.3 mph68%30.01 "Hg10 mi
9:00 AM61 °FPassing clouds.3 mph72%30.01 "HgN/A
8:00 AM57 °FPassing clouds.6 mph82%30.01 "HgN/A
Weather by CustomWeather, © 2014

See weather overviewHow to use our weather pages